| time (UTC) | temp F | wind direction | speed MPH | gust MPH | rain 1hr in | rain 24hr in | rain mn in | humidity % | barometer mb |
| 20260906223048 | 56 | 222 | 0.0 | 0.0 | 0.03 | 0.06 | 0.00 | 91 | 1016.3 |
| 20260906221548 | 56 | 222 | 0.0 | 3.0 | 0.04 | 0.06 | 0.00 | 91 | 1016.3 |
| 20260906220045 | 56 | 235 | 0.0 | 0.0 | 0.04 | 0.06 | 0.00 | 90 | 1016.5 |
| 20260906214544 | 56 | 235 | 2.0 | 6.0 | 0.03 | 0.04 | 0.04 | 88 | 1016.5 |
| 20260906213048 | 57 | 252 | 0.0 | 1.0 | 0.02 | 0.03 | 0.03 | 85 | 1016.6 |
| 20260906211543 | 57 | 270 | 0.0 | 0.0 | 0.01 | 0.02 | 0.02 | 84 | 1016.6 |
| 20260906210043 | 57 | 270 | 0.0 | 0.0 | 0.01 | 0.02 | 0.02 | 81 | 1016.5 |
| 20260906204555 | 57 | 238 | 0.0 | 3.0 | 0.00 | 0.01 | 0.01 | 80 | 1016.5 |
| 20260906203053 | 58 | 319 | 0.0 | 3.0 | 0.01 | 0.01 | 0.01 | 80 | 1016.5 |
| 20260906201541 | 58 | 276 | 0.0 | 3.0 | 0.01 | 0.01 | 0.01 | 78 | 1016.5 |
| 20260906200042 | 59 | 238 | 0.0 | 4.0 | 0.01 | 0.01 | 0.01 | 76 | 1016.5 |
| 20260906194540 | 60 | 255 | 0.0 | 0.0 | 0.01 | 0.01 | 0.01 | 73 | 1016.4 |
| 20260906193038 | 61 | 237 | 0.0 | 2.0 | 0.00 | 0.00 | 0.00 | 68 | 1016.4 |
| 20260906191539 | 61 | 233 | 0.0 | 4.0 | 0.00 | 0.00 | 0.00 | 67 | 1016.4 |
| 20260906190041 | 62 | 229 | 0.0 | 0.0 | 0.00 | 0.00 | 0.00 | 67 | 1016.4 |
| 20260906184538 | 62 | 220 | 0.0 | 3.0 | 0.00 | 0.00 | 0.00 | 66 | 1016.4 |
| 20260906183036 | 62 | 290 | 0.0 | 8.0 | 0.00 | 0.00 | 0.00 | 65 | 1016.2 |
| 20260906181541 | 62 | 321 | 0.0 | 5.0 | 0.00 | 0.00 | 0.00 | 63 | 1016.4 |
| 20260906180050 | 63 | 305 | 0.0 | 5.0 | 0.00 | 0.00 | 0.00 | 62 | 1016.3 |
| 20260906174537 | 63 | 248 | 0.0 | 4.0 | 0.00 | 0.00 | 0.00 | 63 | 1016.1 |
| 20260906173034 | 64 | 228 | 1.0 | 6.0 | 0.00 | 0.00 | 0.00 | 65 | 1016.1 |
| 20260906171542 | 66 | 210 | 0.0 | 4.0 | 0.00 | 0.00 | 0.00 | 71 | 1015.9 |
| 20260906170038 | 67 | 215 | 0.0 | 0.0 | 0.00 | 0.00 | 0.00 | 71 | 1015.8 |
| 20260906164533 | 68 | 215 | 0.0 | 0.0 | 0.00 | 0.00 | 0.00 | 72 | 1015.7 |
| 20260906163033 | 68 | 215 | 0.0 | 0.0 | 0.00 | 0.00 | 0.00 | 75 | 1015.9 |
| 20260906161532 | 67 | 215 | 0.0 | 3.0 | 0.00 | 0.00 | 0.00 | 74 | 1016.0 |
| 20260906160035 | 67 | 216 | 2.0 | 5.0 | 0.00 | 0.00 | 0.00 | 72 | 1016.0 |
| 20260906154531 | 67 | 210 | 0.0 | 0.0 | 0.00 | 0.00 | 0.00 | 72 | 1015.8 |
| 20260906153031 | 66 | 210 | 0.0 | 5.0 | 0.00 | 0.00 | 0.00 | 73 | 1016.0 |
| 20260906151530 | 66 | 229 | 3.0 | 8.0 | 0.00 | 0.00 | 0.00 | 72 | 1016.0 |
| 20260906150030 | 66 | 191 | 4.0 | 9.0 | 0.00 | 0.00 | 0.00 | 74 | 1016.2 |
| 20260906144529 | 67 | 227 | 4.0 | 10.0 | 0.00 | 0.00 | 0.00 | 71 | 1016.2 |
| 20260906143027 | 67 | 230 | 4.0 | 10.0 | 0.00 | 0.00 | 0.00 | 68 | 1016.3 |
| 20260906141526 | 68 | 193 | 7.0 | 11.0 | 0.00 | 0.00 | 0.00 | 65 | 1016.4 |
| 20260906140026 | 68 | 195 | 4.0 | 12.0 | 0.00 | 0.00 | 0.00 | 68 | 1016.4 |
| 20260906134526 | 67 | 195 | 4.0 | 10.0 | 0.00 | 0.04 | 0.00 | 66 | 1016.5 |
| 20260906133024 | 68 | 222 | 4.0 | 11.0 | 0.00 | 0.04 | 0.00 | 63 | 1016.5 |
| 20260906131523 | 69 | 219 | 4.0 | 12.0 | 0.00 | 0.04 | 0.00 | 60 | 1016.6 |
| 20260906130023 | 69 | 225 | 6.0 | 12.0 | 0.00 | 0.04 | 0.00 | 61 | 1016.4 |
| 20260906124522 | 69 | 190 | 8.0 | 13.0 | 0.00 | 0.10 | 0.00 | 61 | 1016.5 |
| 20260906123023 | 70 | 210 | 6.0 | 12.0 | 0.00 | 0.10 | 0.00 | 59 | 1016.5 |
| 20260906121520 | 70 | 200 | 2.0 | 12.0 | 0.00 | 0.10 | 0.00 | 57 | 1016.6 |
| 20260906120019 | 70 | 285 | 0.0 | 7.0 | 0.00 | 0.10 | 0.00 | 53 | 1016.6 |
| 20260906114534 | 69 | 296 | 1.0 | 10.0 | 0.00 | 0.36 | 0.00 | 55 | 1016.5 |
| 20260906113020 | 68 | 247 | 0.0 | 5.0 | 0.00 | 0.36 | 0.00 | 57 | 1016.6 |
| 20260906111513 | 69 | 247 | 0.0 | 0.0 | 0.00 | 0.36 | 0.00 | 59 | 1016.5 |
| 20260906110014 | 68 | 335 | 0.0 | 2.0 | 0.00 | 0.36 | 0.00 | 57 | 1016.5 |
| 20260906104517 | 68 | 231 | 0.0 | 9.0 | 0.00 | 0.39 | 0.00 | 61 | 1016.6 |
| 20260906103009 | 68 | 227 | 0.0 | 6.0 | 0.00 | 0.39 | 0.00 | 63 | 1016.5 |
| 20260906101518 | 68 | 291 | 0.0 | 4.0 | 0.00 | 0.39 | 0.00 | 61 | 1016.4 |
| 20260906100005 | 67 | 205 | 1.0 | 5.0 | 0.00 | 0.39 | 0.00 | 64 | 1016.5 |
| 20260906094504 | 66 | 269 | 0.0 | 6.0 | 0.00 | 0.39 | 0.00 | 63 | 1016.4 |
| 20260906093103 | 66 | 251 | 0.0 | 5.0 | 0.00 | 0.39 | 0.00 | 64 | 1016.3 |
| 20260906091600 | 65 | 300 | 0.0 | 5.0 | 0.00 | 0.39 | 0.00 | 66 | 1016.3 |
| 20260906090059 | 65 | 333 | 0.0 | 0.0 | 0.00 | 0.39 | 0.00 | 66 | 1016.3 |
| 20260906084554 | 64 | 312 | 0.0 | 7.0 | 0.00 | 0.39 | 0.00 | 66 | 1016.1 |
| 20260906083053 | 63 | 310 | 1.0 | 8.0 | 0.00 | 0.39 | 0.00 | 67 | 1016.1 |
| 20260906081548 | 63 | 327 | 0.0 | 5.0 | 0.00 | 0.39 | 0.00 | 70 | 1015.9 |
| 20260906080047 | 62 | 4 | 0.0 | 6.0 | 0.00 | 0.39 | 0.00 | 71 | 1015.8 |
| 20260906074542 | 61 | 314 | 0.0 | 6.0 | 0.00 | 0.39 | 0.00 | 71 | 1015.6 |
| 20260906073038 | 60 | 328 | 0.0 | 7.0 | 0.00 | 0.39 | 0.00 | 74 | 1015.6 |
| 20260906071534 | 60 | 316 | 0.0 | 4.0 | 0.00 | 0.39 | 0.00 | 76 | 1015.5 |
| 20260906070031 | 59 | 339 | 0.0 | 1.0 | 0.00 | 0.39 | 0.00 | 77 | 1015.4 |
| 20260906064528 | 58 | 326 | 0.0 | 3.0 | 0.00 | 0.39 | 0.00 | 77 | 1015.2 |
| 20260906063026 | 57 | 293 | 0.0 | 5.0 | 0.00 | 0.39 | 0.00 | 77 | 1015.0 |
| 20260906061523 | 57 | 312 | 1.0 | 8.0 | 0.00 | 0.39 | 0.00 | 78 | 1014.9 |
| 20260906060026 | 56 | 317 | 0.0 | 4.0 | 0.00 | 0.39 | 0.00 | 80 | 1015.0 |
| 20260906054530 | 55 | 283 | 0.0 | 2.0 | 0.00 | 0.39 | 0.00 | 83 | 1014.7 |
| 20260906053013 | 53 | 303 | 0.0 | 2.0 | 0.00 | 0.39 | 0.00 | 87 | 1014.6 |
| 20260906051512 | 51 | 301 | 0.0 | 0.0 | 0.00 | 0.39 | 0.00 | 89 | 1014.5 |
| 20260906050010 | 49 | 301 | 0.0 | 0.0 | 0.00 | 0.39 | 0.00 | 89 | 1014.3 |
| 20260906044509 | 49 | 301 | 0.0 | 0.0 | 0.00 | 0.43 | 0.00 | 88 | 1014.1 |
| 20260906043013 | 50 | 301 | 0.0 | 0.0 | 0.00 | 0.43 | 0.00 | 87 | 1013.9 |
| 20260906041503 | 51 | 301 | 0.0 | 0.0 | 0.00 | 0.43 | 0.00 | 85 | 1013.7 |
| 20260906040001 | 52 | 301 | 0.0 | 0.0 | 0.00 | 0.43 | 0.00 | 84 | 1013.6 |
| 20260906034606 | 52 | 301 | 0.0 | 2.0 | 0.00 | 0.49 | 0.00 | 83 | 1013.5 |
| 20260906033106 | 52 | 294 | 0.0 | 0.0 | 0.00 | 0.49 | 0.00 | 83 | 1013.4 |
| 20260906031555 | 53 | 332 | 0.0 | 0.0 | 0.00 | 0.49 | 0.00 | 83 | 1013.2 |
| 20260906030054 | 53 | 326 | 0.0 | 3.0 | 0.00 | 0.49 | 0.00 | 83 | 1012.9 |
| 20260906024609 | 53 | 314 | 0.0 | 3.0 | 0.00 | 0.49 | 0.00 | 83 | 1012.9 |
| 20260906023100 | 53 | 315 | 0.0 | 3.0 | 0.00 | 0.49 | 0.00 | 83 | 1012.7 |
| 20260906021549 | 53 | 300 | 0.0 | 3.0 | 0.00 | 0.49 | 0.00 | 83 | 1012.5 |
| 20260906020047 | 53 | 322 | 0.0 | 1.0 | 0.00 | 0.49 | 0.00 | 84 | 1012.3 |
| 20260906014547 | 53 | 320 | 0.0 | 3.0 | 0.00 | 0.49 | 0.00 | 84 | 1012.2 |
| 20260906013045 | 53 | 312 | 0.0 | 0.0 | 0.00 | 0.49 | 0.00 | 85 | 1012.3 |
| 20260906011544 | 53 | 312 | 0.0 | 0.0 | 0.00 | 0.49 | 0.00 | 86 | 1012.3 |
| 20260906010043 | 52 | 296 | 0.0 | 2.0 | 0.00 | 0.49 | 0.00 | 87 | 1012.1 |
| 20260906004541 | 51 | 308 | 0.0 | 0.0 | 0.00 | 0.49 | 0.00 | 88 | 1011.8 |
| 20260906003038 | 52 | 315 | 0.0 | 1.0 | 0.00 | 0.49 | 0.00 | 87 | 1011.6 |
| 20260906001538 | 53 | 314 | 0.0 | 0.0 | 0.00 | 0.49 | 0.00 | 86 | 1011.3 |
| 20260906000034 | 53 | 314 | 0.0 | 0.0 | 0.00 | 0.49 | 0.00 | 87 | 1011.2 |
| 20260905234533 | 52 | 308 | 0.0 | 0.0 | 0.00 | 0.49 | 0.00 | 89 | 1011.1 |
| 20260905233030 | 51 | 308 | 0.0 | 0.0 | 0.00 | 0.49 | 0.00 | 90 | 1010.9 |
| 20260905231529 | 51 | 328 | 0.0 | 0.0 | 0.00 | 0.49 | 0.00 | 90 | 1010.8 |
| 20260905230026 | 52 | 330 | 0.0 | 0.0 | 0.00 | 0.49 | 0.00 | 89 | 1010.5 |
| 20260905224557 | 52 | 330 | 0.0 | 0.0 | 0.00 | 0.49 | 0.00 | 89 | 1010.3 |